Regional Weather Roundup
Issued by NWS

Home | Current Version | Previous Version | Text Only | Print | Product List | Glossary Off
Versions: 1 2 3 4 5 6 7 8 9 10 11 12 13 14 15 16 17 18 19 20 21 22 23 24 25 26 27 28 29 30 31 32 33 34 35 36 37 38 39 40 41 42 43 44 45 46 47 48 49 50

000
ASUS45 KBOU 280907
RWRCO

WEATHER ROUNDUP FOR COLORADO
NATIONAL WEATHER SERVICE DENVER/BOULDER CO
300 AM MDT MON JUL 28 2014

NOTE: "FAIR" INDICATES FEW OR NO CLOUDS BELOW 12000 FEET WITH NO
SIGNIFICANT WEATHER AND/OR OBSTRUCTIONS TO VISIBILITY.

COZ001>005-013-030-031-281000-
...NORTHWEST COLORADO...

CITY           SKY/WX    TMP DP  RH WIND       PRES   REMARKS
CRAIG          PTCLDY    46  45  96 CALM      30.35R
HAYDEN         PTCLDY    61  43  51 E8        30.37S
MEEKER         CLOUDY    63  46  54 CALM      30.38R
MOUNT WERNER   NOT AVBL
STEAMBOAT SPGS PTCLDY    56  47  71 CALM      30.40S
WALDEN         CLEAR     50  43  76 E6        30.51S
$$

COZ006>008-011-281000-
...WEST CENTRAL VALLEYS...

CITY           SKY/WX    TMP DP  RH WIND       PRES   REMARKS
GRAND JUNCTION CLOUDY    74  49  41 NE8       30.27S
MONTROSE       MOCLDY    68  52  56 S3        30.36S
EAGLE          MOCLDY    61  50  67 CALM      30.43S
RIFLE          CLOUDY    68  48  48 W3        30.32R
DELTA          MOCLDY    72  56  56 N3        30.31S
NUCLA          CLOUDY    68  52  56 NW3       30.42S
$$

COZ017>023-064>068-281000-
...SOUTHWEST COLORADO...

CITY           SKY/WX    TMP DP  RH WIND       PRES   REMARKS
DURANGO        CLOUDY    61  57  87 N6        30.47R
CORTEZ         CLOUDY    64  60  87 CALM      30.40R
PAGOSA SPRINGS LGT RAIN  59  52  78 E3        30.55R
TELLURIDE      CLOUDY    61  46  59 CALM      30.59F
WOLF CREEK PAS NOT AVBL
$$

COZ009-010-012-014-032>034-037-058>063-281000-
...CENTRAL COLORADO...

CITY           SKY/WX    TMP DP  RH WIND       PRES   REMARKS
ASPEN          MOCLDY    57  45  64 S6        30.48S
BUENA VISTA    CLOUDY    56  53  91 SE3       30.56S
COPPER MTN     MOCLDY    54  41  62 S18       30.80F
BERTHOUD PASS  FAIR      45  32  61 W10       30.85S
COTTONWOOD PAS MOCLDY    54  50  87 S7        30.66F
GUNNISON       MOCLDY    57  46  67 N9        30.52F
KREMMLING      MOCLDY    55  45  67 CALM      30.48S
LEADVILLE      CLOUDY    49  46  90 N3        30.66F
MONARCH PASS   CLOUDY    46  43  87 S7        30.90F
SALIDA         CLOUDY   N/A N/A N/A CALM      30.61S
SUNLIGHT       CLOUDY    55  43  62 CALM      30.72S
WILKERSON PASS NOT AVBL
$$

COZ069>075-281000-
...SAN LUIS VALLEY/SANGRE DE CRISTO MOUNTAINS...

CITY           SKY/WX    TMP DP  RH WIND       PRES   REMARKS
ALAMOSA        LGT RAIN  56  54  93 S17       30.51F
LA VETA PASS   DRZL/FOG  48  46  93 W5        30.69F VSB 1/2
SAGUACHE       CLOUDY    55  52  88 CALM      30.54R
$$

COZ035-036-038>040-281000-
...NORTHERN COLORADO FRONT RANGE...

CITY           SKY/WX    TMP DP  RH WIND       PRES   REMARKS
DENVER INTL AP MOCLDY    66  53  63 S10       30.34F
DMNS CITY PARK   N/A     65  55  70 S1        30.33F
AURORA         PTCLDY    65  53  65 SW16      30.36F
FRONT RANGE AP NOT AVBL
ERIE MUNI ARPT PTCLDY    59  54  84 NE3       30.32F
BOULDER MUN AP PTCLDY    63  55  77 CALM      30.33F
CENTENNIAL     MOCLDY    64  53  67 SE9       30.37F
BROOMFIELD     PTCLDY    63  54  72 W3        30.36S
FORT COLLINS   PTCLDY    63  57  82 NE3       30.35S
LONGMONT       PTCLDY    64  60  85 N3        30.35R
$$

COZ041-046-047-076>085-087-088-281000-
...PIKES PEAK/PALMER DIVIDE AND SOUTHERN FOOTHILLS...

CITY           SKY/WX    TMP DP  RH WIND       PRES   REMARKS
COLO. SPRINGS  CLOUDY    61  56  83 SE3       30.44F
A. F. ACADEMY  MOCLDY    57  57  99 SE3       30.45F
ELLICOTT       CLOUDY    59  57  93 NW3       30.43R
FALCON         CLOUDY    56  55  95 W7        30.48F
FORT CARSON    CLOUDY    60  58  94 W2        30.41F
LIMON          CLOUDY    60  57  89 S5        30.39F
MONUMENT HILL  MOCLDY    55  52  88 S20       30.45F
TRINIDAD       HVY RAIN  63  59  87 CALM      30.45S FOG
$$

COZ042>045-048>051-090-091-281000-
...NORTHEAST COLORADO...

CITY           SKY/WX    TMP DP  RH WIND       PRES   REMARKS
GREELEY ARPT   PTCLDY    63  55  77 E6        30.33S
AKRON          MOCLDY    63  48  58 S3        30.35S
BURLINGTON     CLOUDY    64  54  69 S7        30.34S
WRAY             N/A     63  48  58 NE5       30.32S
STERLING       MOCLDY    66  52  59 CALM      30.31S
HOLYOKE        PTCLDY    59  54  82 SE5       30.33S
FORT MORGAN    MOCLDY    65  59  80 SW3       30.34F
$$

COZ086-089-092>099-281000-
...SOUTHEAST COLORADO...

CITY           SKY/WX    TMP DP  RH WIND       PRES   REMARKS
PUEBLO         CLOUDY    64  64 100 W5        30.36F
LA JUNTA       CLOUDY    67  65  93 SW8       30.34F
LAMAR          CLOUDY    71  61  70 NW3       30.31R
SPRINGFIELD      N/A     65  60  84 SW21G26   30.39R
$$



USA.gov is the U.S. government's official web portal to all federal, state and local government web resources and services.